owner,sensor,date,latitude,longitude,vertical_datum,sea_water_practical_salinity,qcFlag 
DISL,ioos:station:DISL:BSCA:1,2016-11-01T00:00:00Z,30.3288,-87.8293,2.277,25.51,1111122 
DISL,ioos:station:DISL:BSCA:1,2016-11-01T00:30:00Z,30.3288,-87.8293,2.305,25.54,1111122 
DISL,ioos:station:DISL:BSCA:1,2016-11-01T01:00:00Z,30.3288,-87.8293,2.327,25.6,1111122 
DISL,ioos:station:DISL:BSCA:1,2016-11-01T01:30:00Z,30.3288,-87.8293,2.354,25.63,1111122 
DISL,ioos:station:DISL:BSCA:1,2016-11-01T02:00:00Z,30.3288,-87.8293,2.375,25.71,1111122 
DISL,ioos:station:DISL:BSCA:1,2016-11-01T02:30:00Z,30.3288,-87.8293,2.406,25.65,1111122 
DISL,ioos:station:DISL:BSCA:1,2016-11-01T03:00:00Z,30.3288,-87.8293,2.411,25.65,1111122 
DISL,ioos:station:DISL:BSCA:1,2016-11-01T03:30:00Z,30.3288,-87.8293,2.43,25.66,1111122 
DISL,ioos:station:DISL:BSCA:1,2016-11-01T04:00:00Z,30.3288,-87.8293,2.43,25.65,1111122 
DISL,ioos:station:DISL:BSCA:1,2016-11-01T04:30:00Z,30.3288,-87.8293,2.42,25.6,1111122 
DISL,ioos:station:DISL:BSCA:1,2016-11-01T05:00:00Z,30.3288,-87.8293,2.412,25.54,1111122 
DISL,ioos:station:DISL:BSCA:1,2016-11-01T05:30:00Z,30.3288,-87.8293,2.403,25.49,1111122 
DISL,ioos:station:DISL:BSCA:1,2016-11-01T06:00:00Z,30.3288,-87.8293,2.391,25.47,1111122 
DISL,ioos:station:DISL:BSCA:1,2016-11-01T06:30:00Z,30.3288,-87.8293,2.34,25.56,1111122 
DISL,ioos:station:DISL:BSCA:1,2016-11-01T07:00:00Z,30.3288,-87.8293,2.343,25.5,1111122 
DISL,ioos:station:DISL:BSCA:1,2016-11-01T07:30:00Z,30.3288,-87.8293,2.288,25.46,1111122 
DISL,ioos:station:DISL:BSCA:1,2016-11-01T08:00:00Z,30.3288,-87.8293,2.264,25.36,1111122 
DISL,ioos:station:DISL:BSCA:1,2016-11-01T08:30:00Z,30.3288,-87.8293,2.237,25.3,1111122 
DISL,ioos:station:DISL:BSCA:1,2016-11-01T09:00:00Z,30.3288,-87.8293,2.195,25.29,1111122 
DISL,ioos:station:DISL:BSCA:1,2016-11-01T09:30:00Z,30.3288,-87.8293,2.147,25.31,1111122 
DISL,ioos:station:DISL:BSCA:1,2016-11-01T10:00:00Z,30.3288,-87.8293,2.115,25.26,1111122 
DISL,ioos:station:DISL:BSCA:1,2016-11-01T10:30:00Z,30.3288,-87.8293,2.087,25.24,1111122 
DISL,ioos:station:DISL:BSCA:1,2016-11-01T11:00:00Z,30.3288,-87.8293,2.049,25.22,1111122 
DISL,ioos:station:DISL:BSCA:1,2016-11-01T11:30:00Z,30.3288,-87.8293,2.019,25.2,1111122 
DISL,ioos:station:DISL:BSCA:1,2016-11-01T12:00:00Z,30.3288,-87.8293,1.988,25.2,1111122 
DISL,ioos:station:DISL:BSCA:1,2016-11-01T12:30:00Z,30.3288,-87.8293,1.97,25.19,1111122 
DISL,ioos:station:DISL:BSCA:1,2016-11-01T13:00:00Z,30.3288,-87.8293,1.952,25.21,1111122 
DISL,ioos:station:DISL:BSCA:1,2016-11-01T13:30:00Z,30.3288,-87.8293,1.937,25.21,1111122 
DISL,ioos:station:DISL:BSCA:1,2016-11-01T14:00:00Z,30.3288,-87.8293,1.92,25.2,1111122 
DISL,ioos:station:DISL:BSCA:1,2016-11-01T14:30:00Z,30.3288,-87.8293,1.901,25.24,1111122 
DISL,ioos:station:DISL:BSCA:1,2016-11-01T15:00:00Z,30.3288,-87.8293,1.909,25.26,1111122 
DISL,ioos:station:DISL:BSCA:1,2016-11-01T15:30:00Z,30.3288,-87.8293,1.907,25.28,1111122 
DISL,ioos:station:DISL:BSCA:1,2016-11-01T16:00:00Z,30.3288,-87.8293,1.919,25.3,1111122 
DISL,ioos:station:DISL:BSCA:1,2016-11-01T16:30:00Z,30.3288,-87.8293,1.931,25.31,1111122 
DISL,ioos:station:DISL:BSCA:1,2016-11-01T17:00:00Z,30.3288,-87.8293,1.948,25.37,1111122 
DISL,ioos:station:DISL:BSCA:1,2016-11-01T17:30:00Z,30.3288,-87.8293,1.969,25.41,1111122 
DISL,ioos:station:DISL:BSCA:1,2016-11-01T18:00:00Z,30.3288,-87.8293,1.984,25.5,1111122 
DISL,ioos:station:DISL:BSCA:1,2016-11-01T18:30:00Z,30.3288,-87.8293,2.005,25.53,1111122 
DISL,ioos:station:DISL:BSCA:1,2016-11-01T19:00:00Z,30.3288,-87.8293,2.026,25.55,1111122 
DISL,ioos:station:DISL:BSCA:1,2016-11-01T19:30:00Z,30.3288,-87.8293,2.04,25.67,1111122 
DISL,ioos:station:DISL:BSCA:1,2016-11-01T20:00:00Z,30.3288,-87.8293,2.05,25.64,1111122 
DISL,ioos:station:DISL:BSCA:1,2016-11-01T20:30:00Z,30.3288,-87.8293,2.063,25.77,1111122 
DISL,ioos:station:DISL:BSCA:1,2016-11-01T21:00:00Z,30.3288,-87.8293,2.082,25.86,1111122 
DISL,ioos:station:DISL:BSCA:1,2016-11-01T21:30:00Z,30.3288,-87.8293,2.109,25.97,1111122 
DISL,ioos:station:DISL:BSCA:1,2016-11-01T22:00:00Z,30.3288,-87.8293,2.139,25.97,1111122 
DISL,ioos:station:DISL:BSCA:1,2016-11-01T22:30:00Z,30.3288,-87.8293,2.162,26.05,1111122 
DISL,ioos:station:DISL:BSCA:1,2016-11-01T23:00:00Z,30.3288,-87.8293,2.197,26.1,1111122 
DISL,ioos:station:DISL:BSCA:1,2016-11-01T23:30:00Z,30.3288,-87.8293,2.23,26.11,1111122 
DISL,ioos:station:DISL:BSCA:1,2016-11-02T00:00:00Z,30.3288,-87.8293,2.254,26.08,1111122 
DISL,ioos:station:DISL:BSCA:1,2016-11-02T00:30:00Z,30.3288,-87.8293,2.277,26.12,1111122 
DISL,ioos:station:DISL:BSCA:1,2016-11-02T01:00:00Z,30.3288,-87.8293,2.296,26.11,1111122 
DISL,ioos:station:DISL:BSCA:1,2016-11-02T01:30:00Z,30.3288,-87.8293,2.331,26.09,1111122 
DISL,ioos:station:DISL:BSCA:1,2016-11-02T02:00:00Z,30.3288,-87.8293,2.358,26.09,1111122 
DISL,ioos:station:DISL:BSCA:1,2016-11-02T02:30:00Z,30.3288,-87.8293,2.386,26.14,1111122 
DISL,ioos:station:DISL:BSCA:1,2016-11-02T03:00:00Z,30.3288,-87.8293,2.408,26.09,1111122 
DISL,ioos:station:DISL:BSCA:1,2016-11-02T03:30:00Z,30.3288,-87.8293,2.421,25.97,1111122 
DISL,ioos:station:DISL:BSCA:1,2016-11-02T04:00:00Z,30.3288,-87.8293,2.43,25.91,1111122 
DISL,ioos:station:DISL:BSCA:1,2016-11-02T04:30:00Z,30.3288,-87.8293,2.442,25.68,1111122 
DISL,ioos:station:DISL:BSCA:1,2016-11-02T05:00:00Z,30.3288,-87.8293,2.447,25.97,1111122 
DISL,ioos:station:DISL:BSCA:1,2016-11-02T05:30:00Z,30.3288,-87.8293,2.449,26.21,1111122 
DISL,ioos:station:DISL:BSCA:1,2016-11-02T06:00:00Z,30.3288,-87.8293,2.429,26.27,1111122 
DISL,ioos:station:DISL:BSCA:1,2016-11-02T06:30:00Z,30.3288,-87.8293,2.421,26.3,1111122 
DISL,ioos:station:DISL:BSCA:1,2016-11-02T07:00:00Z,30.3288,-87.8293,2.405,26.31,1111122 
DISL,ioos:station:DISL:BSCA:1,2016-11-02T07:30:00Z,30.3288,-87.8293,2.385,25.87,1111122 
DISL,ioos:station:DISL:BSCA:1,2016-11-02T08:00:00Z,30.3288,-87.8293,2.362,26.05,1111122 
DISL,ioos:station:DISL:BSCA:1,2016-11-02T08:30:00Z,30.3288,-87.8293,2.326,25.74,1111122 
DISL,ioos:station:DISL:BSCA:1,2016-11-02T09:00:00Z,30.3288,-87.8293,2.293,25.6,1111122 
DISL,ioos:station:DISL:BSCA:1,2016-11-02T09:30:00Z,30.3288,-87.8293,2.255,25.79,1111122 
DISL,ioos:station:DISL:BSCA:1,2016-11-02T10:00:00Z,30.3288,-87.8293,2.216,25.72,1111122 
DISL,ioos:station:DISL:BSCA:1,2016-11-02T10:30:00Z,30.3288,-87.8293,2.173,25.82,1111122 
DISL,ioos:station:DISL:BSCA:1,2016-11-02T11:00:00Z,30.3288,-87.8293,2.131,25.92,1111122 
DISL,ioos:station:DISL:BSCA:1,2016-11-02T11:30:00Z,30.3288,-87.8293,2.1,25.89,1111122 
DISL,ioos:station:DISL:BSCA:1,2016-11-02T12:00:00Z,30.3288,-87.8293,2.067,25.88,1111122 
DISL,ioos:station:DISL:BSCA:1,2016-11-02T12:30:00Z,30.3288,-87.8293,2.042,25.91,1111122 
DISL,ioos:station:DISL:BSCA:1,2016-11-02T13:00:00Z,30.3288,-87.8293,2.018,25.86,1111122 
DISL,ioos:station:DISL:BSCA:1,2016-11-02T13:30:00Z,30.3288,-87.8293,2.011,25.84,1111122 
DISL,ioos:station:DISL:BSCA:1,2016-11-02T14:00:00Z,30.3288,-87.8293,2.0,25.8,1111122 
DISL,ioos:station:DISL:BSCA:1,2016-11-02T14:30:00Z,30.3288,-87.8293,1.978,25.76,1111122 
DISL,ioos:station:DISL:BSCA:1,2016-11-02T15:00:00Z,30.3288,-87.8293,1.969,25.78,1111122 
DISL,ioos:station:DISL:BSCA:1,2016-11-02T15:30:00Z,30.3288,-87.8293,1.96,25.78,1111122 
DISL,ioos:station:DISL:BSCA:1,2016-11-02T16:00:00Z,30.3288,-87.8293,1.949,25.76,1111122 
DISL,ioos:station:DISL:BSCA:1,2016-11-02T16:30:00Z,30.3288,-87.8293,1.95,25.71,1111122 
DISL,ioos:station:DISL:BSCA:1,2016-11-02T17:00:00Z,30.3288,-87.8293,1.95,25.71,1111122 
DISL,ioos:station:DISL:BSCA:1,2016-11-02T17:30:00Z,30.3288,-87.8293,1.963,25.68,1111122 
DISL,ioos:station:DISL:BSCA:1,2016-11-02T18:00:00Z,30.3288,-87.8293,1.969,25.63,1111122 
DISL,ioos:station:DISL:BSCA:1,2016-11-02T18:30:00Z,30.3288,-87.8293,1.99,25.54,1111122 
DISL,ioos:station:DISL:BSCA:1,2016-11-02T19:00:00Z,30.3288,-87.8293,2.011,25.53,1111122 
DISL,ioos:station:DISL:BSCA:1,2016-11-02T19:30:00Z,30.3288,-87.8293,2.039,25.51,1111122 
DISL,ioos:station:DISL:BSCA:1,2016-11-02T20:00:00Z,30.3288,-87.8293,2.074,25.5,1111122 
DISL,ioos:station:DISL:BSCA:1,2016-11-02T20:30:00Z,30.3288,-87.8293,2.092,25.51,1111122 
DISL,ioos:station:DISL:BSCA:1,2016-11-02T21:00:00Z,30.3288,-87.8293,2.109,25.56,1111122 
DISL,ioos:station:DISL:BSCA:1,2016-11-02T21:30:00Z,30.3288,-87.8293,2.118,25.56,1111122 
DISL,ioos:station:DISL:BSCA:1,2016-11-02T22:00:00Z,30.3288,-87.8293,2.142,25.54,1111122 
DISL,ioos:station:DISL:BSCA:1,2016-11-02T22:30:00Z,30.3288,-87.8293,2.16,25.51,1111122 
DISL,ioos:station:DISL:BSCA:1,2016-11-02T23:00:00Z,30.3288,-87.8293,2.183,25.46,1111122 
DISL,ioos:station:DISL:BSCA:1,2016-11-02T23:30:00Z,30.3288,-87.8293,2.2,25.43,1111122 
DISL,ioos:station:DISL:BSCA:1,2016-11-03T00:00:00Z,30.3288,-87.8293,2.224,25.42,1111122 
DISL,ioos:station:DISL:BSCA:1,2016-11-03T00:30:00Z,30.3288,-87.8293,2.241,25.4,1111122 
DISL,ioos:station:DISL:BSCA:1,2016-11-03T01:00:00Z,30.3288,-87.8293,2.263,25.36,1111122 
DISL,ioos:station:DISL:BSCA:1,2016-11-03T01:30:00Z,30.3288,-87.8293,2.287,25.3,1111122 
DISL,ioos:station:DISL:BSCA:1,2016-11-03T02:00:00Z,30.3288,-87.8293,2.315,25.31,1111122 
DISL,ioos:station:DISL:BSCA:1,2016-11-03T02:30:00Z,30.3288,-87.8293,2.339,25.27,1111122 
DISL,ioos:station:DISL:BSCA:1,2016-11-03T03:00:00Z,30.3288,-87.8293,2.37,25.22,1111122 
DISL,ioos:station:DISL:BSCA:1,2016-11-03T03:30:00Z,30.3288,-87.8293,2.382,25.22,1111122 
DISL,ioos:station:DISL:BSCA:1,2016-11-03T04:00:00Z,30.3288,-87.8293,2.401,25.22,1111122 
DISL,ioos:station:DISL:BSCA:1,2016-11-03T04:30:00Z,30.3288,-87.8293,2.413,25.22,1111122 
DISL,ioos:station:DISL:BSCA:1,2016-11-03T05:00:00Z,30.3288,-87.8293,2.411,25.19,1111122 
DISL,ioos:station:DISL:BSCA:1,2016-11-03T05:30:00Z,30.3288,-87.8293,2.42,25.16,1111122 
DISL,ioos:station:DISL:BSCA:1,2016-11-03T06:00:00Z,30.3288,-87.8293,2.415,25.37,1111122 
DISL,ioos:station:DISL:BSCA:1,2016-11-03T06:30:00Z,30.3288,-87.8293,2.402,25.39,1111122 
DISL,ioos:station:DISL:BSCA:1,2016-11-03T07:00:00Z,30.3288,-87.8293,2.371,25.45,1111122 
DISL,ioos:station:DISL:BSCA:1,2016-11-03T07:30:00Z,30.3288,-87.8293,2.352,25.55,1111122 
DISL,ioos:station:DISL:BSCA:1,2016-11-03T08:00:00Z,30.3288,-87.8293,2.328,25.71,1111122 
DISL,ioos:station:DISL:BSCA:1,2016-11-03T08:30:00Z,30.3288,-87.8293,2.308,25.63,1111122 
DISL,ioos:station:DISL:BSCA:1,2016-11-03T09:00:00Z,30.3288,-87.8293,2.271,25.63,1111122 
DISL,ioos:station:DISL:BSCA:1,2016-11-03T09:30:00Z,30.3288,-87.8293,2.244,25.63,1111122 
DISL,ioos:station:DISL:BSCA:1,2016-11-03T10:00:00Z,30.3288,-87.8293,2.21,25.36,1111122 
DISL,ioos:station:DISL:BSCA:1,2016-11-03T10:30:00Z,30.3288,-87.8293,2.175,25.39,1111122 
DISL,ioos:station:DISL:BSCA:1,2016-11-03T11:00:00Z,30.3288,-87.8293,2.136,25.32,1111122 
DISL,ioos:station:DISL:BSCA:1,2016-11-03T11:30:00Z,30.3288,-87.8293,2.098,25.33,1111122 
DISL,ioos:station:DISL:BSCA:1,2016-11-03T12:00:00Z,30.3288,-87.8293,2.07,25.41,1111122 
DISL,ioos:station:DISL:BSCA:1,2016-11-03T12:30:00Z,30.3288,-87.8293,2.042,25.36,1111122 
DISL,ioos:station:DISL:BSCA:1,2016-11-03T13:00:00Z,30.3288,-87.8293,2.019,25.45,1111122 
DISL,ioos:station:DISL:BSCA:1,2016-11-03T13:30:00Z,30.3288,-87.8293,1.997,25.5,1111122 
DISL,ioos:station:DISL:BSCA:1,2016-11-03T14:00:00Z,30.3288,-87.8293,1.973,25.56,1111122 
DISL,ioos:station:DISL:BSCA:1,2016-11-03T14:30:00Z,30.3288,-87.8293,1.943,25.55,1111122 
DISL,ioos:station:DISL:BSCA:1,2016-11-03T15:00:00Z,30.3288,-87.8293,1.93,25.56,1111122 
DISL,ioos:station:DISL:BSCA:1,2016-11-03T15:30:00Z,30.3288,-87.8293,1.925,25.55,1111122 
DISL,ioos:station:DISL:BSCA:1,2016-11-03T16:00:00Z,30.3288,-87.8293,1.925,25.58,1111122 
DISL,ioos:station:DISL:BSCA:1,2016-11-03T16:30:00Z,30.3288,-87.8293,1.918,25.58,1111122 
DISL,ioos:station:DISL:BSCA:1,2016-11-03T17:00:00Z,30.3288,-87.8293,1.919,25.56,1111122 
DISL,ioos:station:DISL:BSCA:1,2016-11-03T17:30:00Z,30.3288,-87.8293,1.937,25.57,1111122 
DISL,ioos:station:DISL:BSCA:1,2016-11-03T18:00:00Z,30.3288,-87.8293,1.949,25.58,1111122 
DISL,ioos:station:DISL:BSCA:1,2016-11-03T18:30:00Z,30.3288,-87.8293,1.973,25.62,1111122 
DISL,ioos:station:DISL:BSCA:1,2016-11-03T19:00:00Z,30.3288,-87.8293,1.987,25.65,1111122 
DISL,ioos:station:DISL:BSCA:1,2016-11-03T19:30:00Z,30.3288,-87.8293,2.007,25.65,1111122 
DISL,ioos:station:DISL:BSCA:1,2016-11-03T20:00:00Z,30.3288,-87.8293,2.032,25.64,1111122 
DISL,ioos:station:DISL:BSCA:1,2016-11-03T20:30:00Z,30.3288,-87.8293,2.052,25.64,1111122 
DISL,ioos:station:DISL:BSCA:1,2016-11-03T21:00:00Z,30.3288,-87.8293,2.079,25.61,1111122 
DISL,ioos:station:DISL:BSCA:1,2016-11-03T21:30:00Z,30.3288,-87.8293,2.103,25.6,1111122 
DISL,ioos:station:DISL:BSCA:1,2016-11-03T22:00:00Z,30.3288,-87.8293,2.123,25.63,1111122 
DISL,ioos:station:DISL:BSCA:1,2016-11-03T22:30:00Z,30.3288,-87.8293,2.146,25.65,1111122 
DISL,ioos:station:DISL:BSCA:1,2016-11-03T23:00:00Z,30.3288,-87.8293,2.174,25.67,1111122 
DISL,ioos:station:DISL:BSCA:1,2016-11-03T23:30:00Z,30.3288,-87.8293,2.2,25.63,1111122 
DISL,ioos:station:DISL:BSCA:1,2016-11-04T00:00:00Z,30.3288,-87.8293,2.229,25.64,1111122 
DISL,ioos:station:DISL:BSCA:1,2016-11-04T00:30:00Z,30.3288,-87.8293,2.26,25.64,1111122 
DISL,ioos:station:DISL:BSCA:1,2016-11-04T01:00:00Z,30.3288,-87.8293,2.283,25.63,1111122 
DISL,ioos:station:DISL:BSCA:1,2016-11-04T01:30:00Z,30.3288,-87.8293,2.313,25.68,1111122 
DISL,ioos:station:DISL:BSCA:1,2016-11-04T02:00:00Z,30.3288,-87.8293,2.338,25.65,1111122 
DISL,ioos:station:DISL:BSCA:1,2016-11-04T02:30:00Z,30.3288,-87.8293,2.366,25.63,1111122 
DISL,ioos:station:DISL:BSCA:1,2016-11-04T03:00:00Z,30.3288,-87.8293,2.382,25.64,1111122 
DISL,ioos:station:DISL:BSCA:1,2016-11-04T03:30:00Z,30.3288,-87.8293,2.394,25.64,1111122 
DISL,ioos:station:DISL:BSCA:1,2016-11-04T04:00:00Z,30.3288,-87.8293,2.41,25.62,1111122 
DISL,ioos:station:DISL:BSCA:1,2016-11-04T04:30:00Z,30.3288,-87.8293,2.426,25.62,1111122 
DISL,ioos:station:DISL:BSCA:1,2016-11-04T05:00:00Z,30.3288,-87.8293,2.43,25.61,1111122 
DISL,ioos:station:DISL:BSCA:1,2016-11-04T05:30:00Z,30.3288,-87.8293,2.441,25.6,1111122 
DISL,ioos:station:DISL:BSCA:1,2016-11-04T06:00:00Z,30.3288,-87.8293,2.432,25.58,1111122 
DISL,ioos:station:DISL:BSCA:1,2016-11-04T06:30:00Z,30.3288,-87.8293,2.431,25.61,1111122 
DISL,ioos:station:DISL:BSCA:1,2016-11-04T07:00:00Z,30.3288,-87.8293,2.417,25.57,1111122 
DISL,ioos:station:DISL:BSCA:1,2016-11-04T07:30:00Z,30.3288,-87.8293,2.384,25.59,1111122 
DISL,ioos:station:DISL:BSCA:1,2016-11-04T08:00:00Z,30.3288,-87.8293,2.377,25.12,1111122 
DISL,ioos:station:DISL:BSCA:1,2016-11-04T08:30:00Z,30.3288,-87.8293,2.339,25.23,1111122 
DISL,ioos:station:DISL:BSCA:1,2016-11-04T09:00:00Z,30.3288,-87.8293,2.328,25.21,1111122 
DISL,ioos:station:DISL:BSCA:1,2016-11-04T09:30:00Z,30.3288,-87.8293,2.291,24.96,1111122 
DISL,ioos:station:DISL:BSCA:1,2016-11-04T10:00:00Z,30.3288,-87.8293,2.25,25.03,1111122 
DISL,ioos:station:DISL:BSCA:1,2016-11-04T10:30:00Z,30.3288,-87.8293,2.208,25.44,1111122 
DISL,ioos:station:DISL:BSCA:1,2016-11-04T11:00:00Z,30.3288,-87.8293,2.172,25.34,1111122 
DISL,ioos:station:DISL:BSCA:1,2016-11-04T11:30:00Z,30.3288,-87.8293,2.141,25.3,1111122 
DISL,ioos:station:DISL:BSCA:1,2016-11-04T12:00:00Z,30.3288,-87.8293,2.101,25.1,1111122 
DISL,ioos:station:DISL:BSCA:1,2016-11-04T12:30:00Z,30.3288,-87.8293,2.061,25.06,1111122 
DISL,ioos:station:DISL:BSCA:1,2016-11-04T13:00:00Z,30.3288,-87.8293,2.028,25.09,1111122 
DISL,ioos:station:DISL:BSCA:1,2016-11-04T13:30:00Z,30.3288,-87.8293,2.003,25.07,1111122 
DISL,ioos:station:DISL:BSCA:1,2016-11-04T14:00:00Z,30.3288,-87.8293,1.986,25.03,1111122 
DISL,ioos:station:DISL:BSCA:1,2016-11-04T14:30:00Z,30.3288,-87.8293,1.959,25.01,1111122 
DISL,ioos:station:DISL:BSCA:1,2016-11-04T15:00:00Z,30.3288,-87.8293,1.933,25.0,1111122 
DISL,ioos:station:DISL:BSCA:1,2016-11-04T15:30:00Z,30.3288,-87.8293,1.901,25.09,1111122 
DISL,ioos:station:DISL:BSCA:1,2016-11-04T16:00:00Z,30.3288,-87.8293,1.875,25.02,1111122 
DISL,ioos:station:DISL:BSCA:1,2016-11-04T16:30:00Z,30.3288,-87.8293,1.867,25.05,1111122 
DISL,ioos:station:DISL:BSCA:1,2016-11-04T17:00:00Z,30.3288,-87.8293,1.858,25.06,1111122 
DISL,ioos:station:DISL:BSCA:1,2016-11-04T17:30:00Z,30.3288,-87.8293,1.866,25.04,1111122 
DISL,ioos:station:DISL:BSCA:1,2016-11-04T18:00:00Z,30.3288,-87.8293,1.862,25.07,1111122 
DISL,ioos:station:DISL:BSCA:1,2016-11-04T18:30:00Z,30.3288,-87.8293,1.887,25.41,1111122 
DISL,ioos:station:DISL:BSCA:1,2016-11-04T19:00:00Z,30.3288,-87.8293,1.909,26.21,1111122 
DISL,ioos:station:DISL:BSCA:1,2016-11-04T19:30:00Z,30.3288,-87.8293,1.934,25.07,1111122 
DISL,ioos:station:DISL:BSCA:1,2016-11-04T20:00:00Z,30.3288,-87.8293,1.993,25.06,1111122 
DISL,ioos:station:DISL:BSCA:1,2016-11-04T20:30:00Z,30.3288,-87.8293,2.001,25.12,1111122 
DISL,ioos:station:DISL:BSCA:1,2016-11-04T21:00:00Z,30.3288,-87.8293,2.023,25.14,1111122 
DISL,ioos:station:DISL:BSCA:1,2016-11-04T21:30:00Z,30.3288,-87.8293,2.031,25.24,1111122 
DISL,ioos:station:DISL:BSCA:1,2016-11-04T22:00:00Z,30.3288,-87.8293,2.055,25.43,1111122 
DISL,ioos:station:DISL:BSCA:1,2016-11-04T22:30:00Z,30.3288,-87.8293,2.104,25.06,1111122 
DISL,ioos:station:DISL:BSCA:1,2016-11-04T23:00:00Z,30.3288,-87.8293,2.097,25.4,1111122 
DISL,ioos:station:DISL:BSCA:1,2016-11-04T23:30:00Z,30.3288,-87.8293,2.137,25.05,1111122 
DISL,ioos:station:DISL:BSCA:1,2016-11-05T00:00:00Z,30.3288,-87.8293,2.171,25.12,1111122 
DISL,ioos:station:DISL:BSCA:1,2016-11-05T00:30:00Z,30.3288,-87.8293,2.181,25.27,1111122 
DISL,ioos:station:DISL:BSCA:1,2016-11-05T01:00:00Z,30.3288,-87.8293,2.188,25.19,1111122 
DISL,ioos:station:DISL:BSCA:1,2016-11-05T01:30:00Z,30.3288,-87.8293,2.191,25.32,1111122 
DISL,ioos:station:DISL:BSCA:1,2016-11-05T02:00:00Z,30.3288,-87.8293,2.194,25.08,1111122 
DISL,ioos:station:DISL:BSCA:1,2016-11-05T02:30:00Z,30.3288,-87.8293,2.211,25.06,1111122 
DISL,ioos:station:DISL:BSCA:1,2016-11-05T03:00:00Z,30.3288,-87.8293,2.234,25.68,1111122 
DISL,ioos:station:DISL:BSCA:1,2016-11-05T03:30:00Z,30.3288,-87.8293,2.246,25.1,1111122 
DISL,ioos:station:DISL:BSCA:1,2016-11-05T04:00:00Z,30.3288,-87.8293,2.254,25.12,1111122 
DISL,ioos:station:DISL:BSCA:1,2016-11-05T04:30:00Z,30.3288,-87.8293,2.249,25.1,1111122 
DISL,ioos:station:DISL:BSCA:1,2016-11-05T05:00:00Z,30.3288,-87.8293,2.249,25.07,1111122 
DISL,ioos:station:DISL:BSCA:1,2016-11-05T05:30:00Z,30.3288,-87.8293,2.236,25.18,1111122 
DISL,ioos:station:DISL:BSCA:1,2016-11-05T06:00:00Z,30.3288,-87.8293,2.227,25.63,1111122 
DISL,ioos:station:DISL:BSCA:1,2016-11-05T06:30:00Z,30.3288,-87.8293,2.211,25.67,1111122 
DISL,ioos:station:DISL:BSCA:1,2016-11-05T07:00:00Z,30.3288,-87.8293,2.207,25.2,1111122 
DISL,ioos:station:DISL:BSCA:1,2016-11-05T07:30:00Z,30.3288,-87.8293,2.2,25.34,1111122 
DISL,ioos:station:DISL:BSCA:1,2016-11-05T08:00:00Z,30.3288,-87.8293,2.208,24.99,1111122 
DISL,ioos:station:DISL:BSCA:1,2016-11-05T08:30:00Z,30.3288,-87.8293,2.2,25.12,1111122 
DISL,ioos:station:DISL:BSCA:1,2016-11-05T09:00:00Z,30.3288,-87.8293,2.183,25.44,1111122 
DISL,ioos:station:DISL:BSCA:1,2016-11-05T09:30:00Z,30.3288,-87.8293,2.174,24.58,1111122 
DISL,ioos:station:DISL:BSCA:1,2016-11-05T10:00:00Z,30.3288,-87.8293,2.152,25.1,1111122 
DISL,ioos:station:DISL:BSCA:1,2016-11-05T10:30:00Z,30.3288,-87.8293,2.127,25.09,1111122 
DISL,ioos:station:DISL:BSCA:1,2016-11-05T11:00:00Z,30.3288,-87.8293,2.104,25.18,1111122 
DISL,ioos:station:DISL:BSCA:1,2016-11-05T11:30:00Z,30.3288,-87.8293,2.093,25.23,1111122 
DISL,ioos:station:DISL:BSCA:1,2016-11-05T12:00:00Z,30.3288,-87.8293,2.069,25.01,1111122 
DISL,ioos:station:DISL:BSCA:1,2016-11-05T12:30:00Z,30.3288,-87.8293,2.038,25.24,1111122 
DISL,ioos:station:DISL:BSCA:1,2016-11-05T13:00:00Z,30.3288,-87.8293,2.006,25.15,1111122 
DISL,ioos:station:DISL:BSCA:1,2016-11-05T13:30:00Z,30.3288,-87.8293,1.978,25.17,1111122 
DISL,ioos:station:DISL:BSCA:1,2016-11-05T14:00:00Z,30.3288,-87.8293,1.963,24.88,1111122 
DISL,ioos:station:DISL:BSCA:1,2016-11-05T14:30:00Z,30.3288,-87.8293,1.95,24.47,1111122 
DISL,ioos:station:DISL:BSCA:1,2016-11-05T15:00:00Z,30.3288,-87.8293,1.932,25.26,1111122 
DISL,ioos:station:DISL:BSCA:1,2016-11-05T15:30:00Z,30.3288,-87.8293,1.919,24.69,1111122 
DISL,ioos:station:DISL:BSCA:1,2016-11-05T16:00:00Z,30.3288,-87.8293,1.889,25.77,1111122 
DISL,ioos:station:DISL:BSCA:1,2016-11-05T16:30:00Z,30.3288,-87.8293,1.877,25.81,1111122 
DISL,ioos:station:DISL:BSCA:1,2016-11-05T17:00:00Z,30.3288,-87.8293,1.859,24.82,1111122 
DISL,ioos:station:DISL:BSCA:1,2016-11-05T17:30:00Z,30.3288,-87.8293,1.846,24.85,1111122 
DISL,ioos:station:DISL:BSCA:1,2016-11-05T18:00:00Z,30.3288,-87.8293,1.833,24.71,1111122 
DISL,ioos:station:DISL:BSCA:1,2016-11-05T18:30:00Z,30.3288,-87.8293,1.848,24.75,1111122 
DISL,ioos:station:DISL:BSCA:1,2016-11-05T19:00:00Z,30.3288,-87.8293,1.871,24.5,1111122 
DISL,ioos:station:DISL:BSCA:1,2016-11-05T19:30:00Z,30.3288,-87.8293,1.893,24.54,1111122 
DISL,ioos:station:DISL:BSCA:1,2016-11-05T20:00:00Z,30.3288,-87.8293,1.921,24.6,1111122 
DISL,ioos:station:DISL:BSCA:1,2016-11-05T20:30:00Z,30.3288,-87.8293,1.941,24.55,1111122 
DISL,ioos:station:DISL:BSCA:1,2016-11-05T21:00:00Z,30.3288,-87.8293,1.967,24.56,1111122 
DISL,ioos:station:DISL:BSCA:1,2016-11-05T21:30:00Z,30.3288,-87.8293,1.985,24.52,1111122 
DISL,ioos:station:DISL:BSCA:1,2016-11-05T22:00:00Z,30.3288,-87.8293,2.005,24.65,1111122 
DISL,ioos:station:DISL:BSCA:1,2016-11-05T22:30:00Z,30.3288,-87.8293,2.019,24.49,1111122 
DISL,ioos:station:DISL:BSCA:1,2016-11-05T23:00:00Z,30.3288,-87.8293,2.043,24.42,1111122 
DISL,ioos:station:DISL:BSCA:1,2016-11-05T23:30:00Z,30.3288,-87.8293,2.071,24.4,1111122 
DISL,ioos:station:DISL:BSCA:1,2016-11-06T00:00:00Z,30.3288,-87.8293,2.098,25.3,1111122 
DISL,ioos:station:DISL:BSCA:1,2016-11-06T00:30:00Z,30.3288,-87.8293,2.121,25.23,1111122 
DISL,ioos:station:DISL:BSCA:1,2016-11-06T01:00:00Z,30.3288,-87.8293,2.141,25.19,1111122 
DISL,ioos:station:DISL:BSCA:1,2016-11-06T01:30:00Z,30.3288,-87.8293,2.171,25.18,1111122 
DISL,ioos:station:DISL:BSCA:1,2016-11-06T02:00:00Z,30.3288,-87.8293,2.211,25.06,1111122 
DISL,ioos:station:DISL:BSCA:1,2016-11-06T02:30:00Z,30.3288,-87.8293,2.224,25.05,1111122 
DISL,ioos:station:DISL:BSCA:1,2016-11-06T03:00:00Z,30.3288,-87.8293,2.226,25.04,1111122 
DISL,ioos:station:DISL:BSCA:1,2016-11-06T03:30:00Z,30.3288,-87.8293,2.251,25.03,1111122 
DISL,ioos:station:DISL:BSCA:1,2016-11-06T04:00:00Z,30.3288,-87.8293,2.279,25.04,1111122 
DISL,ioos:station:DISL:BSCA:1,2016-11-06T04:30:00Z,30.3288,-87.8293,2.259,25.01,1111122 
DISL,ioos:station:DISL:BSCA:1,2016-11-06T05:00:00Z,30.3288,-87.8293,2.281,24.98,1111122 
DISL,ioos:station:DISL:BSCA:1,2016-11-06T05:30:00Z,30.3288,-87.8293,2.277,24.97,1111122 
DISL,ioos:station:DISL:BSCA:1,2016-11-06T06:00:00Z,30.3288,-87.8293,2.294,24.95,1111122 
DISL,ioos:station:DISL:BSCA:1,2016-11-06T06:30:00Z,30.3288,-87.8293,2.304,25.0,1111122 
DISL,ioos:station:DISL:BSCA:1,2016-11-06T07:00:00Z,30.3288,-87.8293,2.304,25.07,1111122 
DISL,ioos:station:DISL:BSCA:1,2016-11-06T07:30:00Z,30.3288,-87.8293,2.307,25.19,1111122 
DISL,ioos:station:DISL:BSCA:1,2016-11-06T08:00:00Z,30.3288,-87.8293,2.297,25.26,1111122 
DISL,ioos:station:DISL:BSCA:1,2016-11-06T08:30:00Z,30.3288,-87.8293,2.266,25.32,1111122 
DISL,ioos:station:DISL:BSCA:1,2016-11-06T09:00:00Z,30.3288,-87.8293,2.243,25.32,1111122 
DISL,ioos:station:DISL:BSCA:1,2016-11-06T09:30:00Z,30.3288,-87.8293,2.217,25.3,1111122 
DISL,ioos:station:DISL:BSCA:1,2016-11-06T10:00:00Z,30.3288,-87.8293,2.202,25.31,1111122 
DISL,ioos:station:DISL:BSCA:1,2016-11-06T10:30:00Z,30.3288,-87.8293,2.174,25.29,1111122 
DISL,ioos:station:DISL:BSCA:1,2016-11-06T11:00:00Z,30.3288,-87.8293,2.15,25.18,1111122 
DISL,ioos:station:DISL:BSCA:1,2016-11-06T11:30:00Z,30.3288,-87.8293,2.123,25.19,1111122 
DISL,ioos:station:DISL:BSCA:1,2016-11-06T12:00:00Z,30.3288,-87.8293,2.09,25.14,1111122 
DISL,ioos:station:DISL:BSCA:1,2016-11-06T12:30:00Z,30.3288,-87.8293,2.05,24.55,1111122 
DISL,ioos:station:DISL:BSCA:1,2016-11-06T13:00:00Z,30.3288,-87.8293,2.021,24.71,1111122 
DISL,ioos:station:DISL:BSCA:1,2016-11-06T13:30:00Z,30.3288,-87.8293,1.987,24.66,1111122 
DISL,ioos:station:DISL:BSCA:1,2016-11-06T14:00:00Z,30.3288,-87.8293,1.964,24.59,1111122 